Home   Weather   Delémont   Past weeks

Flag for Switzerland Past Weather in Delémont, Jura, Switzerland — Yesterday and Last 2 Weeks

Now
38 °F

Chilly.


Feels Like: 38 °F
Forecast: 36 / 45 °F
Wind: 1 mph from West

Location: Grenchen

Current Time: Feb 28, 2017 at 1:37:01 pm

Latest Report: Feb 28, 2017 at 12:00 pm


Visibility: N/A

Pressure: 29.53 "Hg

Humidity: 91%

Dew Point: 36 °F

Location of DelémontLocation

Past Weather in Delémont — Graph

°F

Delémont Temperature Yesterday

Maximum temperature yesterday: 60 °F (at 4:00 pm)
Minimum temperature yesterday: 26 °F (at 6:00 am)
Average temperature yesterday: 43 °F

High & Low Weather Summary for the Past Weeks

 TemperatureHumidityPressure
High66 °F (Feb 23, 3:00 pm)100% (Feb 16, 12:00 am)30.70 "Hg (Feb 16, 12:00 am)
Low25 °F (Feb 15, 4:00 am)24% (Feb 23, 3:00 pm)29.50 "Hg (Feb 28, 1:00 am)
Average40 °F80%30.22 "Hg
* Reported Feb 13 12:00 pm — Feb 28 12:00 pm, Delémont, Weather by CustomWeather, © 2017

Note: Actual official high and low records may vary slightly from our data, if they occured in-between our weather recording intervals... More about our weather records

Advertising

Delémont Weather History for the Previous 24 Hours

Scroll right to see more
 ConditionsComfort  
Time TempWeatherWind HumidityBarometerVisibility
12:00 pm
Tue, Feb 28
38 °FChilly.1 mph91%29.53 "HgN/A
11:00 am36 °FChilly.3 mph97%29.60 "HgN/A
10:00 am34 °FChilly.6 mph98%29.65 "HgN/A
9:00 am36 °FChilly.7 mph96%29.67 "HgN/A
8:00 am37 °FChilly.2 mph93%29.68 "HgN/A
7:00 am37 °FChilly.2 mph94%29.68 "HgN/A
6:00 am38 °FChilly.7 mph92%29.68 "HgN/A
5:00 am40 °FChilly.6 mph89%29.63 "HgN/A
4:00 am41 °FQuite cool.12 mph87%29.59 "HgN/A
3:00 am43 °FQuite cool.20 mph83%29.55 "HgN/A
2:00 am52 °FCool.20 mph61%29.50 "HgN/A
1:00 am49 °FCool.8 mph67%29.50 "HgN/A
12:00 am50 °FCool.10 mph62%29.55 "HgN/A
11:00 pm
Mon, Feb 27
51 °FCool.14 mph60%29.58 "HgN/A
10:00 pm52 °FCool.21 mph57%29.60 "HgN/A
9:00 pm53 °FCool.25 mph54%29.59 "HgN/A
8:00 pm53 °FCool.17 mph53%29.60 "HgN/A
7:00 pm53 °FCool.12 mph51%29.61 "HgN/A
6:00 pm56 °FRefreshingly cool.16 mph44%29.60 "HgN/A
5:00 pm59 °FRefreshingly cool.20 mph37%29.61 "HgN/A
4:00 pm60 °FRefreshingly cool.22 mph35%29.63 "HgN/A
3:00 pm60 °FRefreshingly cool.21 mph37%29.66 "HgN/A
2:00 pm56 °FRefreshingly cool.17 mph41%29.71 "HgN/A
1:00 pm54 °FCool.15 mph46%29.76 "HgN/A
Weather by CustomWeather, © 2017

See weather overviewHow to use our weather pages